Merimbula Observation History
Time Wind Speed Temp Pressure Rel. Hum Rain
14/10:30am W 6-9 kts 16.3°c 1010.8 hPa 50% 0.0mm
14/10:00am WSW 6-11 kts 15.3°c 1010.8 hPa 53% 0.0mm
14/09:30am WNW 8-13 kts 14.5°c 1010.5 hPa 54% 0.0mm
14/09:00am NW 6-11 kts 13.4°c 1010.6 hPa 64% 0.0mm
14/08:30am NW 4-6 kts 11.1°c 1010.6 hPa 82% 0.0mm
14/08:00am NW 5-7 kts 9.1°c 1010.3 hPa 92% 0.0mm
14/07:30am NW 4-6 kts 7.3°c 1010.4 hPa 99% 0.0mm
14/07:00am NW 4-6 kts 7.5°c 1010.3 hPa 98% 0.0mm
14/06:30am NW 3-6 kts 7.4°c 1009.9 hPa 99% 0.0mm
14/06:00am CALM 0 kts 7.1°c 1009.4 hPa 95% 0.0mm
14/05:30am CALM 0 kts 8.1°c 1009.2 hPa 92% 0.0mm
14/05:00am NW 4-7 kts 9.3°c 1009.3 hPa 83% 0.0mm
14/04:30am NNW 3-6 kts 9.4°c 1009.1 hPa 86% 0.0mm
14/04:00am CALM 0 kts 9.4°c 1009.0 hPa 85% 0.0mm
14/03:30am SSW 3-4 kts 10.5°c 1009.1 hPa 77% 0.0mm
14/03:00am SSW 5-10 kts 11.4°c 1009.1 hPa 72% 0.0mm
14/02:30am SSW 7-13 kts 11.9°c 1009.3 hPa 72% 0.0mm
14/02:00am SSW 7-13 kts 12.1°c 1009.2 hPa 77% 0.0mm
14/01:30am SSW 7-11 kts 12.1°c 1009.2 hPa 87% 0.0mm
14/01:00am SSW 6-8 kts 10.9°c 1008.9 hPa 92% 0.0mm
14/12:30am SSW 4-6 kts 10.9°c 1008.8 hPa 89% 0.0mm
14/12:00am S 8-13 kts 12.5°c 1008.7 hPa 84% 0.0mm
Time Wind Speed Temp Pressure Rel. Hum Rain
13/11:30pm S 5-7 kts 11.0°c 1008.4 hPa 86% 0.0mm
13/11:00pm SSW 6-8 kts 11.4°c 1008.5 hPa 87% 0.0mm
13/10:30pm WSW 6-9 kts 12.1°c 1008.5 hPa 84% 0.0mm
13/10:00pm SSW 4-5 kts 10.6°c 1008.6 hPa 95% 0.0mm
13/09:30pm CALM 0 kts 10.6°c 1008.6 hPa 97% 0.0mm
13/09:00pm WSW 5-8 kts 11.0°c 1008.6 hPa 93% 0.0mm
13/08:30pm NW 5-7 kts 11.2°c 1008.5 hPa 99% 0.0mm
13/08:00pm NNW 4-6 kts 11.6°c 1008.6 hPa 99% 0.0mm
13/07:30pm NNW 3-7 kts 11.8°c 1008.5 hPa 99% 0.0mm
13/07:00pm CALM 0 kts 12.0°c 1008.3 hPa 97% 0.0mm
13/06:30pm CALM 0 kts 13.1°c 1008.1 hPa 94% 0.0mm
13/06:00pm CALM 0 kts 14.0°c 1008.0 hPa 94% 0.0mm
13/05:30pm CALM 0 kts 14.7°c 1007.8 hPa 89% 0.0mm
13/05:00pm NNE 2-6 kts 15.8°c 1007.7 hPa 79% 0.0mm
13/04:30pm NW 2-4 kts 17.4°c 1008.1 hPa 73% 0.0mm
13/04:00pm WSW 5-7 kts 18.8°c 1008.3 hPa 61% 0.0mm
13/03:30pm WSW 5-8 kts 19.6°c 1008.1 hPa 57% 0.0mm
13/03:00pm SW 4-10 kts 19.9°c 1008.5 hPa 52% 0.0mm
13/02:30pm WSW 5-6 kts 20.6°c 1008.6 hPa 54% 0.0mm
13/02:00pm W 4-6 kts 20.6°c 1008.8 hPa 54% 0.0mm
13/01:30pm W 5-8 kts 21.6°c 1008.9 hPa 48% 0.0mm
13/01:00pm W 6-10 kts 21.7°c 1009.3 hPa 51% 0.0mm
13/12:30pm W 5-8 kts 21.4°c 1009.7 hPa 51% 0.0mm
13/12:00pm W 5-8 kts 21.3°c 1010.5 hPa 55% 0.0mm
13/11:30am W 6-9 kts 20.4°c 1011.2 hPa 54% 0.0mm
13/11:00am W 7-12 kts 19.5°c 1011.9 hPa 57% 0.0mm
13/10:30am W 4-7 kts 18.8°c 1012.4 hPa 65% 0.0mm
13/10:00am WNW 5-7 kts 17.4°c 1012.9 hPa 71% 0.0mm
13/09:30am NW 5-7 kts 16.0°c 1013.0 hPa 84% 0.0mm
13/09:00am NW 4-6 kts 14.6°c 1013.4 hPa 93% 3.4mm
13/08:30am NW 4-5 kts 13.0°c 1013.7 hPa 99% 3.4mm
13/08:00am NW 5-7 kts 11.7°c 1013.8 hPa 99% 3.4mm
13/07:30am NW 6-7 kts 11.1°c 1014.2 hPa 99% 3.4mm
13/07:00am W 4-5 kts 10.6°c 1014.2 hPa 99% 3.4mm
13/06:30am WNW 5-7 kts 10.5°c 1014.5 hPa 99% 3.4mm
13/06:00am W 3-5 kts 9.1°c 1014.5 hPa 99% 3.4mm
13/05:30am WNW 3-4 kts 9.6°c 1014.6 hPa 99% 3.4mm
13/05:00am W 3-4 kts 9.9°c 1014.6 hPa 99% 3.2mm
13/04:30am SSW 3-6 kts 10.1°c 1014.8 hPa 99% 3.2mm
13/04:00am SW 2-5 kts 10.1°c 1015.1 hPa 99% 3.2mm
13/03:30am CALM 0 kts 10.3°c 1015.2 hPa 99% 3.2mm
13/03:00am CALM 0 kts 10.4°c 1015.5 hPa 99% 3.2mm
13/02:30am SW 4-5 kts 10.6°c 1015.9 hPa 99% 3.2mm
13/02:00am SW 3-6 kts 10.8°c 1016.2 hPa 99% 3.2mm
13/01:30am WSW 4-5 kts 11.0°c 1016.5 hPa 99% 3.2mm
13/01:00am NW 2-5 kts 11.7°c 1017.0 hPa 99% 3.2mm
13/12:30am W 3-5 kts 11.6°c 1017.6 hPa 99% 3.2mm
13/12:00am SW 3-4 kts 12.0°c 1018.2 hPa 99% 3.2mm
Time Wind Speed Temp Pressure Rel. Hum Rain
12/11:30pm SSW 1-5 kts 12.2°c 1018.4 hPa 99% 3.2mm
12/11:00pm WNW 4-6 kts 12.7°c 1018.5 hPa 99% 3.2mm
12/10:30pm SW 3-4 kts 12.9°c 1018.8 hPa 99% 3.2mm
12/10:00pm WNW 3-4 kts 13.6°c 1019.4 hPa 99% 3.2mm
12/09:50pm NW 4-6 kts 13.5°c 1019.4 hPa 99% 3.2mm
12/09:30pm WNW 1-5 kts 13.4°c 1019.5 hPa 99% 3.2mm
12/09:00pm WSW 4-5 kts 13.2°c 1019.7 hPa 99% 3.2mm
12/08:54pm SSW 4-5 kts 13.1°c 1019.7 hPa 99% 3.2mm
12/08:30pm SW 3-4 kts 12.9°c 1019.7 hPa 99% 3.2mm
12/08:00pm SW 4-5 kts 13.5°c 1019.4 hPa 99% 3.2mm
12/07:30pm NW 5-7 kts 14.4°c 1019.3 hPa 99% 3.2mm
12/07:29pm NW 5-7 kts 14.4°c 1019.3 hPa 99% 3.2mm
12/07:00pm NW 5-6 kts 14.6°c 1019.5 hPa 99% 3.2mm
12/06:41pm NW 5 kts 14.6°c 1019.6 hPa 99% 3.2mm
12/06:30pm WNW 4-6 kts 14.4°c 1019.5 hPa 99% 3.2mm
12/06:00pm CALM 0 kts 14.4°c 1019.3 hPa 97% 3.2mm
12/05:30pm SE 2-4 kts 15.3°c 1019.4 hPa 96% 3.2mm
12/05:00pm SSE 3-5 kts 16.4°c 1019.2 hPa 93% 3.2mm
12/04:30pm SSE 4-7 kts 17.3°c 1019.3 hPa 89% 3.2mm
12/04:00pm SE 4-7 kts 18.2°c 1019.3 hPa 86% 3.2mm
12/03:30pm SE 5-8 kts 18.4°c 1019.2 hPa 84% 3.2mm
12/03:00pm SE 6-9 kts 19.1°c 1019.2 hPa 82% 3.2mm
12/02:30pm S 6-9 kts 19.2°c 1019.3 hPa 80% 3.2mm
12/02:26pm S 6-9 kts 19.1°c 1019.2 hPa 78% 3.2mm
12/02:00pm SW 6-8 kts 19.4°c 1019.6 hPa 81% 3.2mm
12/01:56pm SSW 6-9 kts 19.4°c 1019.7 hPa 81% 3.2mm
12/01:30pm SSW 6-10 kts 19.1°c 1020.0 hPa 85% 3.2mm
12/01:00pm S 7-11 kts 17.9°c 1020.3 hPa 86% 3.2mm
12/12:46pm SSW 6-9 kts 18.2°c 1020.4 hPa 87% 3.2mm
12/12:30pm SSW 6-9 kts 18.2°c 1020.6 hPa 87% 3.2mm
12/12:17pm SW 6-9 kts 19.2°c 1020.6 hPa 86% 3.2mm
12/12:00pm W 5-7 kts 18.3°c 1020.8 hPa 90% 3.2mm
12/11:30am WSW 5-7 kts 17.1°c 1021.1 hPa 96% 3.2mm
12/11:00am WNW 4-5 kts 16.1°c 1021.5 hPa 99% 3.2mm
12/10:30am NW 4-6 kts 15.5°c 1021.9 hPa 99% 3.2mm
12/10:00am WSW 4-7 kts 15.2°c 1021.7 hPa 99% 2.6mm
12/09:51am WSW 4-7 kts 15.0°c 1021.9 hPa 99% 2.4mm
12/09:43am W 6-8 kts 14.9°c 1021.8 hPa 99% 2.4mm
12/09:40am W 7-10 kts 14.9°c 1021.8 hPa 99% 2.2mm
12/09:30am W 5-8 kts 14.9°c 1021.9 hPa 99% 1.0mm
12/09:00am NNW 4-7 kts 14.8°c 1021.8 hPa 99% 125.0mm
12/08:30am WSW 7-11 kts 14.7°c 1021.7 hPa 99% 124.8mm
12/08:00am SW 5-6 kts 14.6°c 1021.6 hPa 99% 124.6mm
12/07:30am SSW 6-9 kts 14.4°c 1021.4 hPa 99% 124.4mm
12/07:00am SW 6-11 kts 14.2°c 1021.1 hPa 99% 124.4mm
12/06:30am SSW 7-9 kts 14.3°c 1020.6 hPa 99% 124.4mm
12/06:01am SSW 9-15 kts 14.7°c 1020.6 hPa 99% 124.4mm
12/06:00am SSW 9-15 kts 14.7°c 1020.6 hPa 99% 124.4mm
12/05:40am SSW 8-13 kts 14.6°c 1020.6 hPa 99% 124.2mm
12/05:30am SSW 9-13 kts 14.7°c 1020.3 hPa 99% 123.6mm
12/05:19am S 10-18 kts 14.8°c 1020.5 hPa 99% 122.6mm
12/05:00am S 14-20 kts 15.0°c 1020.4 hPa 99% 121.2mm
12/04:47am S 15-22 kts 14.9°c 1020.3 hPa 99% 121.2mm
12/04:30am S 11-20 kts 14.5°c 1020.2 hPa 99% 121.2mm
12/04:19am S 10-15 kts 14.4°c 1020.4 hPa 99% 117.0mm
12/04:00am SSW 9-14 kts 13.9°c 1020.5 hPa 99% 115.6mm
12/03:42am WSW 7-11 kts 13.7°c 1020.6 hPa 99% 114.2mm
12/03:30am SW 8-13 kts 13.8°c 1020.7 hPa 99% 114.0mm
12/03:00am SSW 8-12 kts 13.7°c 1020.8 hPa 99% 109.2mm
12/02:30am S 9-14 kts 14.1°c 1021.1 hPa 99% 104.2mm
12/02:16am S 10-14 kts 14.2°c 1021.0 hPa 99% 102.0mm
12/02:02am S 11-17 kts 14.2°c 1020.9 hPa 99% 100.4mm
12/02:00am S 12-17 kts 14.2°c 1020.8 hPa 99% 100.2mm
12/01:36am S 11-16 kts 14.6°c 1020.9 hPa 99% 97.6mm
12/01:30am S 13-22 kts 14.8°c 1021.0 hPa 99% 96.8mm
12/01:26am SSE 14-22 kts 15.0°c 1021.0 hPa 98% 96.4mm
12/01:16am SSE 14-23 kts 15.1°c 1020.9 hPa 98% 95.4mm
12/01:00am SSE 15-24 kts 15.2°c 1020.7 hPa 96% 93.8mm
12/12:30am SSE 15-23 kts 15.4°c 1020.9 hPa 94% 93.0mm
12/12:16am SSE 16-26 kts 15.4°c 1020.9 hPa 94% 92.6mm
12/12:00am SSE 15-29 kts 15.8°c 1020.9 hPa 90% 92.6mm